TECHDEMOSAT-1 (TDS-1)

Last updated on Tue Sep 22 2026 00:03:52 GMT+0000 (Coordinated Universal Time)

1 40076U 14037H 26264.39247760 .00004890 00000+0 26989-3 0 9997 2 40076 98.3884 266.2730 0004687 314.3041 45.7803 15.14490156662788
UTC large
Height (km)
Speed (km/s)
/
Latitude / Longitude
Inclination (degrees)
Orbital Period (minutes)
Azimuth
Elevation
Range (km)
Doppler Factor

Next 0 passes for location: London (51.5072 / 0.1276)

No passes found over London.
TECHDEMOSAT-1 (TDS-1)